Location: Newark
(40.7360°N, 74.1730°W)
Time: 09:52:22
(UTC-05:00)

BlueWalker 3 - Visible Passes

Search period start: 30 January 2023 00:00
Search period end: 09 February 2023 00:00
Orbit: 499 x 517 km, 53.2° (Epoch: 29 January)

Date Brightness Start Highest point End Pass type
(mag) Time Alt. Az. Time Alt. Az. Time Alt. Az.
30 Jan 3.5 17:47:38 10° W 17:51:00 28° NNW 17:54:23 10° NE visible
30 Jan 4.6 19:28:41 10° NW 19:29:55 13° NNW 19:29:55 13° NNW visible
31 Jan 4.4 19:09:48 10° NW 19:11:46 13° N 19:11:48 13° N visible
01 Feb 4.3 18:50:55 10° NW 18:52:52 13° N 18:53:40 13° N visible
02 Feb 4.3 18:32:01 10° NNW 18:33:57 13° N 18:35:31 11° NNE visible
03 Feb 4.3 18:13:06 10° NNW 18:15:00 13° N 18:16:54 10° NNE visible
03 Feb 4.9 19:52:03 10° NNW 19:52:09 10° NNW 19:52:09 10° NNW visible
04 Feb 4.3 17:54:10 10° NNW 17:56:03 13° N 17:57:56 10° NNE visible
04 Feb 4.5 19:33:03 10° NNW 19:34:00 14° NNW 19:34:00 14° NNW visible
05 Feb 4.0 19:14:02 10° NNW 19:15:52 18° N 19:15:52 18° N visible
06 Feb 3.7 18:55:00 10° NNW 18:57:46 20° NNE 18:57:46 20° NNE visible
07 Feb 3.5 18:35:57 10° NNW 18:38:56 21° NNE 18:39:43 19° NE visible
07 Feb 5.0 20:14:06 10° NW 20:14:31 13° NW 20:14:31 13° NW visible
08 Feb 3.5 18:16:54 10° NNW 18:19:56 21° NNE 18:21:45 16° ENE visible
08 Feb 4.2 19:55:04 10° NW 19:56:33 22° NW 19:56:33 22° NW visible
